Find Starlink 5260

NORAD ID: 55275 Int'l Des: 2023-010 Owner: SPXS Country: US Constellation: starlink operational
LEOCIRCULAR

Current View

Loading 3D Globe...

About Starlink 5260

Starlink 5260 (NORAD 55275) is a starlink constellation satellite (v1.5) launched Jan 19, 2023 by SPXS of US. It operates in LEO, CIRCULAR orbit with a mass of 305.00 kg.

Upcoming Passes

Passes for default location (London). Set your location on the main map for personalized predictions.

Altitude History

Loading altitude history...

Two-Line Element Set

1 55275U 23010G 26237.64084846 .00001734 00000-0 15302-3 0 9999
2 55275 70.0020 318.5851 0003101 270.4928 89.5876 14.98335153198589
Epoch: Aug 25, 2026 • Age: 12 hours

Current Status

Altitude 595.2 km
Apogee / Perigee N/A
Velocity 7.56 km/s
Sub-Earth Point -69.03°S, 145.33°W
Launch Date Jan 19, 2023
Age 3.5 years
Type internet

Technical Details

Classification Payload
Mass 305.00 kg
Dry Mass 290.00 kg
Total Mass 305.00 kg
Length 0.20 m
Diameter 2.80 m
Span 9.00 m
Shape Box + pan
Manufacturer SPXS
Bus Type Starlink
Phase Status In Orbit
Owner/State SPXS/US

Most Searched